Location: Albany
(42.6526°N, 73.7562°W)
Time: 15:58:41
(UTC+00:00)

ASTEX 1 - Pass Details

Date: 19 November 2019
Orbit: 721 x 743 km, 92.7° (Epoch: 10 December)

Event Time Altitude Azimuth Distance (km) Brightness Sun altitude
Rises 21:56:55 0° 2° (N) 3,192 6.5 -5.5°
Reaches altitude 10° 21:59:15 10° 359° (N) 2,262 5.7 -5.9°
Maximum altitude 22:04:11 62° 280° (W) 834 4.0 -6.7°
Drops below altitude 10° 22:09:04 10° 200° (SSW) 2,236 6.5 -7.6°
Sets 22:11:21 0° 197° (SSW) 3,151 7.2 -8.0°
